Regional Weather Roundup
Issued by NWS Wilmington, NC

Current Version | Previous Version | Text Only | Print | Product List | Glossary On
Versions: 1 2 3 4 5 6 7 8 9 10 11 12 13 14 15 16 17 18 19 20 21 22 23 24 25 26 27 28 29 30 31 32 33 34 35 36 37 38 39 40 41 42 43 44 45 46 47 48 49 50
338
ASUS42 KILM 012013
RWRILM
RWRILM
REGIONAL HOURLY WEATHER ROUNDUP
NATIONAL WEATHER SERVICE WILMINGTON NC
300 PM EST WED MAR 01 2017

NOTE: "FAIR" INDICATES FEW OR NO CLOUDS BELOW 12,000 FEET WITH NO
SIGNIFICANT WEATHER AND/OR OBSTRUCTIONS TO VISIBILITY.

...............WFO WILMINGTON COUNTY WARNING AREA...............

......COASTAL NC AND SC COUNTIES......

CITY           SKY/WX    TMP DP  RH WIND       PRES   REMARKS
WILMINGTON     PTSUNNY   78  65  63 SW16G25   29.94F
N MYRTLE BEACH MOSUNNY   69  64  84 SW17G26   29.96F
MYRTLE BEACH   MOSUNNY   73  64  73 S21       29.97S

......INLAND NC AND SC COUNTIES.......

CITY           SKY/WX    TMP DP  RH WIND       PRES   REMARKS
LUMBERTON      LGT RAIN  83  56  39 SW26G36   29.89F
ELIZABETHTOWN    N/A     82  60  46 W14G21    29.92F
WHITEVILLE     MOSUNNY   82  59  45 SW13G25   29.92F
FLORENCE       MOSUNNY   82  57  42 SW21G29   29.93F
DARLINGTON     SUNNY     81  58  45 SW18G29   29.91F
KINGSTREE      FAIR      81  54  39 SW18G26   29.94F
HARTSVILLE     FAIR      81  55  41 SW14      29.91F
BENNETTSVILLE  NOT AVBL
CONWAY         PTSUNNY   81  59  47 SW10G21   29.94F
GEORGETOWN     FAIR      81  63  54 S13G23    29.98F
MARION         CLOUDY    81  59  47 SW23G29   29.93F

....................REST OF NORTH CAROLINA......................

.........EASTERN NC.........

CITY           SKY/WX    TMP DP  RH WIND       PRES   REMARKS
CAPE HATTERAS  CLOUDY    73  65  75 SW21G31   29.95F HAZE
JACKSONVILLE   CLOUDY    82  64  54 SW16G24   29.90F
MOREHEAD CITY  CLOUDY    69  65  86 SW21      29.96S
KENANSVILLE    CLOUDY    81  59  47 SW21G31   29.90F
NEW BERN       CLOUDY    79  66  64 SW14G23   29.90F
ELIZABETH CITY CLOUDY    79  61  53 SW17G29   29.83F

.........CENTRAL NC.........

CITY           SKY/WX    TMP DP  RH WIND       PRES   REMARKS
RALEIGH DURHAM CLOUDY    76  55  48 SW23G33   29.85F
ROCKY MOUNT    MOSUNNY   80  58  46 S24G31    29.83F
ROANOKE RAPIDS NOT AVBL
FAYETTEVILLE   MOSUNNY   81  59  47 W21G28    29.91F
HOFFMAN        MOSUNNY   81  56  42 SW17G28   29.89S

.........WESTERN NC.........

CITY           SKY/WX    TMP DP  RH WIND       PRES   REMARKS
CHARLOTTE      CLOUDY    75  57  53 S16G25    29.87F
GREENSBORO     CLOUDY    74  58  57 SW24G33   29.82F
HICKORY        NOT AVBL
BOONE          NOT AVBL
ASHEVILLE      NOT AVBL

.....................REST OF SOUTH CAROLINA.....................

.........EASTERN SC.........

CITY           SKY/WX    TMP DP  RH WIND       PRES   REMARKS
CHARLESTON     PTSUNNY   81  64  56 SW17      29.98F
BEAUFORT MCAS  PTSUNNY   81  69  67 S9        29.98F
HILTON HEAD    SUNNY     75  66  73 S14G21    30.01F

.........CENTRAL SC.........

CITY           SKY/WX    TMP DP  RH WIND       PRES   REMARKS
COLUMBIA       MOSUNNY   83  58  42 SW14G28   29.91F
ORANGEBURG     CLOUDY    81  59  47 SW23      29.95F
SUMTER SHAW    SUNNY     82  55  39 S24G31    29.90F

.........WESTERN SC.........

CITY           SKY/WX    TMP DP  RH WIND       PRES   REMARKS
GREENVILLE     NOT AVBL
ROCK HILL      CLOUDY    75  58  55 SW14G24   29.88F
ANDERSON       CLOUDY    76  58  53 SW17G24   29.88F
CLEMSON        NOT AVBL
GREENWOOD      PTSUNNY   78  57  48 SW16G25   29.90F


...................COASTAL AND OFFSHORE REPORTS..................

................LOCAL PIERS AND NC RESERVE................


STATION/POSITION TIME  SKY/WX   TEMP    WIND        PRES    VSBY
                                AIR SEA DIR/SP/G
                 (UTC)          (F)     (DEG/KT/KT) (MB)    (MI)
JOHNY MRCER PIER 1948            73 61  210/ 21/ 25 1013.2F
NC RESRV MASNBRO 1845            74     250/ 11     1014.0
OCEAN CREST PIER NOT AVBL
SPRINGMAID  PIER 1948                               1013.7F


................COASTAL AND OFFSHORE BUOYS................


STATION/POSITION TIME  SKY/WX   TEMP    WIND        PRES    VSBY
                                AIR SEA DIR/SP/G
                 (UTC)          (F)     (DEG/KT/KT) (MB)    (MI)
DIMNDSHOAL 41025 1950            74 73  210/ 27/ 33 1014.1R
WVE H/P(F/S)=  9/ 7 SWL H/P/D(F/S/D)=  3/100/13

CAPE LOOKOUT     2000            68     210/ 11/ 17 1014.5F
ONSLOW BAY 41036 NOT AVBL
ONSLOW BAY 41064 1908            68     210/ 19/ 23 1015.3F
ONSLOW BAY 41159 1943               64                N/A
WVE H/P(F/S)=  6/ 6

MASNBO INL 41110 1959               59                N/A
WVE H/P(F/S)=  4/ 7

WILM HARBR 41108 1947               59                N/A
WVE H/P(F/S)=  4/ 6

27SE WRITB 41037 1908            68 62  190/ 17/ 25 1014.7F
FRYING PAN 41013 2000            72 70  200/ 19/ 23 1015.6
SUNST NRSH 41024 1908            64 60  220/ 19/ 25 1014.7F
CAPRS NRSH 41029 1908            65 62  220/ 17/ 23 1016.1F
EDISTO     41004 1950            71 69  210/ 21/ 25 1015.7F
WVE H/P(F/S)=  5/ 5



..........OFFSHORE BUOYS BEYOND 100 NM OFFSHORE...........
.....IN A TRIANGLE---HAT TO BERMUDA TO BAHAMAS TO HAT.....


STATION/POSITION TIME  SKY/WX   TEMP    WIND        PRES    VSBY
                                AIR SEA DIR/SP/G
                 (UTC)          (F)     (DEG/KT/KT) (MB)    (MI)
150E HAT   41001 NOT AVBL
W BERMUDA  41048 1950            70 70  180/ 14/ 17 1022.6F
WVE H/P(F/S)=  4/ 6 SWL H/P/D(F/S/D)=  2/ 50/15

ATLANTIC S 41049 1950            72 73  110/ 12/ 16 1025.3R
WVE H/P(F/S)=  8/ 8 SWL H/P/D(F/S/D)=  7/ 80/ 8

E BAHAMAS  41046 2000            78 79   90/ 17/ 21 1017.9
NE BAHAMAS 41047 2000            74 74  130/ 12/ 16 1022.0
120E CANVRL41010 NOT AVBL

END




USA.gov is the U.S. government's official web portal to all federal, state and local government web resources and services.